Weather in Bowness-on-Windermere

United Kingdom     54°21′52″N   2°55′09″W
temp.,
°C
wind,
m/s
gust,
m/s
humid.,
%
clouds,
%
prec.,
mm/h
press.,
hPa
HPBL,
m
26 october, tue
tue2601:00+9wsw3688100 0.1 1012209
04:00+11sw61182100 0.3 1011629
07:00+10ssw61293100 1.3 1010799
10:00+12sw91596100 6.3 1009871
13:00+13sw9149491 6.6 1010831
16:00+14sw101691100 0.3 1009902
19:00+14sw111788100 0.3 1009838
22:00+14sw111986100 0.0 1010909
27 october, wed
wed2701:00+14sw11198694 0.0 1009965
04:00+14sw111993100 1.0 1008904
07:00+14sw101894100 3.4 1008925
10:00+13ssw91796100 4.8 1009977
13:00+14ssw101893100 8.8 1009869
16:00+14ssw102088100 2.8 10071135
19:00+14ssw91889100 3.8 10061147
22:00+14ssw101988100 1.9 10061089
28 october, thu
thu2801:00+14ssw101992100 6.6 10041139
04:00+13s81595100 6.7 1003699
07:00+13s81494100 12.9 1002656
10:00+13s81493100 3.4 1002698
13:00+13s81396100 5.6 1001672
16:00+13ssw4998100 6.3 1000483
19:00+12ssw4998100 10.1 1000376
22:00+12s2299100 3.1 99977
29 october, fri
fri2901:00+12ssw1298100 10.4 99652
04:00+11nne1198100 5.3 99427
07:00+10sw3696100 5.8 995387
10:00+11sw4793100 0.6 996500
13:00+12sw3484100 1.2 996332
16:00+11w3587100 0.1 995353
19:00+9w2389100 0.1 99676
22:00+8w1289100 0.0 99788
30 october, sat
sat3001:00+8sse3593100 0.3 996164
04:00+9ssw61095100 3.9 995614
07:00+8ssw6109016 7.3 996407
10:00+10sw488479 1.7 997416
13:00+10ssw698460 2.8 998909
16:00+10s4784100 1.2 997595
19:00+9se4990100 1.4 996408
22:00+9se71593100 4.9 9921034